Briefing drone pour Saint-etienne (LFMH)

Rechercher une autre localisation

Conditions de vol :


Nous sommes le : Vendredi 22 octobre 2021
Il est 00:52 UTC (02:52 LT)

Lever de soleil : 05:41 UTC (07:41 LT)
Coucher de soleil : 17:11 UTC (19:11 LT)

Météo

L'essentiel des conditions de vol

VIGILANCE MÉTÉO FRANCE - Loire (42)
Pas de vigilances particulieres
CARTE TEMSI
CARTES DES FRONTS
METAR de LFMH
LFMH 220030Z AUTO 13003KT 9999 BKN040 09/06 Q1018

Date d'émission: 22/10/2021
Heure d'émission: 00:30 UTC
Vent: 130° pour 3 KT (6 km/h)
Visibilité horizontale: > 10 km
Plafond :
- Nuages morcelés à 4000ft (1219m)
Température: 9 °C
Point de rosée: 6 °C
Humidité: 81%
Pression (QNH): 1018 hPa
TAF de LFMH
LFMH 161901Z 1619/1712 CNL

Conditions prévues :

Heure d'émission : Bulletin éffectué le 16 à 19:00 UTC
Prévision : Valide du 16 a 19:00 UTC au 17 a 12:00 UTC
Nuages : à 0ft (0 m)
WEBCAM POUR SAINT-ETIENNE

Réglementation

Voler en sécurité

CARTES AERONAUTIQUE 1/500.000
CARTES VAC (LFMH)
SUP AIP




Chargement des AIP...
NOTAM (SAINT-ETIENNE + Terrain à proximité / FIR )




Chargement des NOTAMS...
CONTACT PREFECTURE 42


Avertissement : Les données mises à disposition sont indicatives. Oxygène Drone ne pourra être tenu responsable de dégâts causés aux biens et aux personnes.